DW8102 Weather Reports


Display with metric or nautical units.
time (UTC)temp
F
wind
direction
speed
MPH
gust
MPH
rain 1hr
in
rain 24hr
in
rain mn
in
humidity
%
barometer
mb
20260831181502 60 221 0.0 0.0 0.00 0.07 0.00 84 1006.0
20260831180100 61 221 0.0 0.0 0.00 0.07 0.00 83 1005.8
20260831174600 61 221 0.0 0.0 0.00 0.07 0.00 82 1005.7
20260831173056 62 222 0.0 0.0 0.00 0.07 0.00 83 1005.8
20260831171554 63 222 0.0 0.0 0.00 0.07 0.00 81 1005.8
20260831170101 63 222 0.0 0.0 0.00 0.07 0.00 80 1005.8
20260831164553 64 222 0.0 0.0 0.00 0.07 0.00 78 1005.8
20260831163053 64 222 0.0 0.0 0.00 0.07 0.00 75 1005.8
20260831161552 64 222 0.0 0.0 0.00 0.07 0.00 75 1005.8
20260831160052 64 212 0.0 1.0 0.00 0.07 0.00 75 1005.8
20260831154615 64 217 0.0 3.0 0.00 0.07 0.00 75 1005.8
20260831153049 64 200 0.0 5.0 0.00 0.07 0.00 76 1005.8
20260831151607 64 180 0.0 3.0 0.00 0.07 0.00 77 1005.7
20260831150050 64 155 0.0 4.0 0.00 0.07 0.00 76 1005.7
20260831144548 64 201 2.0 6.0 0.00 0.07 0.00 76 1005.7
20260831143148 64 170 1.0 6.0 0.00 0.07 0.00 76 1005.7
20260831141548 64 198 2.0 10.0 0.00 0.08 0.00 76 1005.6
20260831140047 64 203 2.0 8.0 0.00 0.08 0.00 76 1005.6
20260831134555 64 221 0.0 5.0 0.00 0.08 0.00 76 1005.7
20260831133044 64 232 2.0 7.0 0.00 0.08 0.00 75 1005.8
20260831131545 64 203 2.0 5.0 0.00 0.08 0.00 77 1005.8
20260831130046 63 212 1.0 3.0 0.00 0.08 0.00 79 1005.7
20260831124548 63 214 3.0 7.0 0.00 0.08 0.00 78 1005.7
20260831123040 63 193 2.0 8.0 0.00 0.08 0.00 79 1005.7
20260831121546 63 203 2.0 6.0 0.00 0.08 0.00 79 1005.6
20260831120039 63 203 0.0 5.0 0.00 0.08 0.00 82 1005.5
20260831114535 63 236 0.0 1.0 0.00 0.08 0.00 83 1005.4
20260831113032 63 208 1.0 4.0 0.00 0.08 0.00 84 1005.4
20260831111532 63 221 0.0 3.0 0.00 0.08 0.08 85 1005.3
20260831110034 63 211 1.0 5.0 0.00 0.08 0.08 83 1005.1
20260831104531 62 266 0.0 6.0 0.00 0.08 0.08 85 1005.0
20260831103033 62 259 3.0 7.0 0.00 0.08 0.08 85 1005.1
20260831101530 62 284 3.0 8.0 0.00 0.08 0.08 84 1005.2
20260831100043 63 205 3.0 11.0 0.00 0.08 0.08 85 1005.1
20260831094530 62 190 1.0 4.0 0.00 0.08 0.08 87 1005.0
20260831093039 62 197 2.0 6.0 0.00 0.08 0.08 87 1004.8
20260831091528 62 159 3.0 9.0 0.00 0.08 0.08 89 1004.9
20260831090027 61 198 1.0 6.0 0.00 0.08 0.08 91 1004.8
20260831084526 61 194 1.0 8.0 0.00 0.08 0.08 92 1004.7
20260831083024 61 194 2.0 7.0 0.00 0.08 0.08 92 1004.5
20260831081526 61 203 1.0 7.0 0.00 0.08 0.08 93 1004.4
20260831080021 61 193 0.0 6.0 0.00 0.08 0.08 93 1004.4
20260831074525 61 218 1.0 6.0 0.00 0.08 0.08 93 1004.2
20260831073019 61 218 2.0 6.0 0.00 0.08 0.08 94 1004.2
20260831071517 61 207 1.0 6.0 0.00 0.08 0.08 94 1004.1
20260831070017 61 236 1.0 7.0 0.00 0.08 0.08 94 1004.0
20260831064516 61 211 1.0 6.0 0.00 0.08 0.08 95 1003.9
20260831063015 61 223 0.0 6.0 0.00 0.08 0.08 96 1003.8
20260831061513 60 229 1.0 6.0 0.00 0.08 0.08 96 1003.7
20260831060012 60 214 1.0 5.0 0.00 0.08 0.08 97 1003.5
20260831054511 60 211 2.0 5.0 0.00 0.08 0.08 97 1003.4
20260831053032 0 0.0 0.0 0.00 0.08 0.08 1003.4
20260831051507 0 0.0 0.0 0.00 0.08 0.08 1003.4
20260831050003 0 0.0 0.0 0.00 0.08 0.08 1003.2
20260831044600 0 0.0 0.0 0.00 0.08 0.08 1003.0
20260831043055 0 0.0 0.0 0.00 0.08 0.08 1002.9
20260831041553 0 0.0 0.0 0.00 0.08 0.08 1002.8
20260831040049 0 0.0 0.0 0.00 0.08 0.08 1002.7
20260831034544 0 0.0 0.0 0.00 0.08 0.08 1002.6
20260831033049 0 0.0 0.0 0.00 0.08 0.08 1002.4
20260831031537 0 0.0 0.0 0.00 0.08 0.08 1002.5
20260831030032 0 0.0 0.0 0.00 0.08 0.08 1002.4
20260831024532 62 266 0.0 3.0 0.03 0.08 0.08 97 1002.3
20260831023036 62 285 0.0 3.0 0.06 0.08 0.08 97 1002.2
20260831021539 62 283 0.0 3.0 0.06 0.08 0.08 97 1002.0
20260831020057 62 305 1.0 3.0 0.06 0.08 0.08 97 1002.0
20260831014533 62 215 0.0 0.0 0.04 0.06 0.06 97 1001.8
20260831013033 61 215 0.0 0.0 0.01 0.02 0.02 97 1001.8
20260831011529 62 190 0.0 1.0 0.01 0.02 0.02 97 1001.8
20260831010028 62 190 0.0 0.0 0.01 0.02 0.02 97 1001.7
20260831004527 62 190 0.0 0.0 0.00 0.02 0.02 97 1001.7
20260831003027 62 190 0.0 0.0 0.00 0.02 0.02 97 1001.7
20260831001529 62 188 0.0 0.0 0.00 0.02 0.02 96 1001.8
20260831000026 62 188 0.0 0.0 0.00 0.02 0.02 96 1001.8
20260830234538 61 188 0.0 0.0 0.00 0.02 0.02 96 1001.8
20260830233027 61 185 0.0 0.0 0.00 0.02 0.02 96 1001.8
20260830231528 61 186 0.0 0.0 0.00 0.02 0.02 96 1001.7
20260830230024 61 186 0.0 0.0 0.01 0.02 0.02 96 1001.7
20260830224524 61 186 0.0 0.0 0.01 0.02 0.02 95 1001.7
20260830223023 61 186 0.0 0.0 0.01 0.02 0.02 96 1001.8
20260830221523 61 186 0.0 0.0 0.01 0.02 0.02 95 1001.7
20260830220023 61 186 0.0 0.0 0.00 0.01 0.01 95 1001.8
20260830214522 61 186 0.0 0.0 0.00 0.01 0.01 95 1001.8
20260830213034 61 187 0.0 0.0 0.00 0.01 0.01 95 1001.8
20260830211524 61 186 0.0 0.0 0.00 0.02 0.01 95 1001.8
20260830210042 61 186 0.0 0.0 0.00 0.02 0.01 94 1001.8
20260830204516 62 185 0.0 0.0 0.00 0.02 0.01 94 1001.8
20260830203018 62 186 0.0 0.0 0.00 0.02 0.01 93 1001.9
20260830201513 62 186 0.0 0.0 0.00 0.11 0.01 93 1001.9
20260830200011 62 195 0.0 0.0 0.00 0.11 0.01 93 1001.9
20260830194509 62 195 0.0 0.0 0.00 0.11 0.01 93 1002.1
20260830193016 62 196 0.0 0.0 0.00 0.11 0.01 93 1002.1
20260830191516 62 196 0.0 0.0 0.00 0.11 0.01 93 1002.1
20260830190008 62 195 0.0 0.0 0.00 0.11 0.01 92 1002.2
20260830184506 62 195 0.0 0.0 0.00 0.11 0.01 92 1002.2
20260830183005 62 195 0.0 0.0 0.00 0.11 0.01 91 1002.3